owner,sensor,date,latitude,longitude,vertical_datum,sea_water_temperature,qcFlag
Enven,ioos:station:wmo:42362:1,2020-10-14T12:14:00Z,27.7950,-90.6470,12.0,27.0,11111222
Enven,ioos:station:wmo:42362:1,2020-10-14T12:23:00Z,27.7950,-90.6470,12.0,26.4,11111222
Enven,ioos:station:wmo:42362:1,2020-10-14T12:33:00Z,27.7950,-90.6470,12.0,26.3,11111222
Enven,ioos:station:wmo:42362:1,2020-10-14T12:43:00Z,27.7950,-90.6470,12.0,26.2,11111222
Enven,ioos:station:wmo:42362:1,2020-10-14T12:53:00Z,27.7950,-90.6470,12.0,26.1,11111222
Enven,ioos:station:wmo:42362:1,2020-10-14T13:03:00Z,27.7950,-90.6470,12.0,25.9,11111222
Enven,ioos:station:wmo:42362:1,2020-10-14T13:13:00Z,27.7950,-90.6470,12.0,26.0,11111222
Enven,ioos:station:wmo:42362:1,2020-10-14T13:23:00Z,27.7950,-90.6470,12.0,24.6,11111222
Enven,ioos:station:wmo:42362:1,2020-10-14T13:33:00Z,27.7950,-90.6470,12.0,24.6,11111222
Enven,ioos:station:wmo:42362:1,2020-10-14T13:43:00Z,27.7950,-90.6470,12.0,24.7,11111222
Enven,ioos:station:wmo:42362:1,2020-10-14T13:53:00Z,27.7950,-90.6470,12.0,25.2,11111222
Enven,ioos:station:wmo:42362:1,2020-10-14T14:03:00Z,27.7950,-90.6470,12.0,25.3,11111222
Enven,ioos:station:wmo:42362:1,2020-10-14T14:13:00Z,27.7950,-90.6470,12.0,25.5,11111222
Enven,ioos:station:wmo:42362:1,2020-10-14T14:23:00Z,27.7950,-90.6470,12.0,26.0,11111222
Enven,ioos:station:wmo:42362:1,2020-10-14T14:33:00Z,27.7950,-90.6470,12.0,26.5,11111222
Enven,ioos:station:wmo:42362:1,2020-10-14T14:43:00Z,27.7950,-90.6470,12.0,26.4,11111222
Enven,ioos:station:wmo:42362:1,2020-10-14T14:53:00Z,27.7950,-90.6470,12.0,26.4,11111222
Enven,ioos:station:wmo:42362:1,2020-10-14T15:03:00Z,27.7950,-90.6470,12.0,26.4,11111222
Enven,ioos:station:wmo:42362:1,2020-10-14T15:13:00Z,27.7950,-90.6470,12.0,26.9,11111222
Enven,ioos:station:wmo:42362:1,2020-10-14T15:23:00Z,27.7950,-90.6470,12.0,27.3,11111222
Enven,ioos:station:wmo:42362:1,2020-10-14T15:33:00Z,27.7950,-90.6470,12.0,27.3,11111222
Enven,ioos:station:wmo:42362:1,2020-10-14T15:43:00Z,27.7950,-90.6470,12.0,27.3,11111222
Enven,ioos:station:wmo:42362:1,2020-10-14T15:53:00Z,27.7950,-90.6470,12.0,27.3,11111222
Enven,ioos:station:wmo:42362:1,2020-10-14T16:03:00Z,27.7950,-90.6470,12.0,27.2,11111222
Enven,ioos:station:wmo:42362:1,2020-10-14T16:13:00Z,27.7950,-90.6470,12.0,27.2,11111222
Enven,ioos:station:wmo:42362:1,2020-10-14T16:23:00Z,27.7950,-90.6470,12.0,27.2,11111222
Enven,ioos:station:wmo:42362:1,2020-10-14T16:33:00Z,27.7950,-90.6470,12.0,27.2,11111222
Enven,ioos:station:wmo:42362:1,2020-10-14T16:43:00Z,27.7950,-90.6470,12.0,27.3,11111222
Enven,ioos:station:wmo:42362:1,2020-10-14T16:53:00Z,27.7950,-90.6470,12.0,27.3,11111222
Enven,ioos:station:wmo:42362:1,2020-10-14T17:03:00Z,27.7950,-90.6470,12.0,27.3,11111222
Enven,ioos:station:wmo:42362:1,2020-10-14T17:13:00Z,27.7950,-90.6470,12.0,26.4,11111222
Enven,ioos:station:wmo:42362:1,2020-10-14T17:23:00Z,27.7950,-90.6470,12.0,27.0,11111222
Enven,ioos:station:wmo:42362:1,2020-10-14T17:33:00Z,27.7950,-90.6470,12.0,27.4,11111222
Enven,ioos:station:wmo:42362:1,2020-10-14T17:43:00Z,27.7950,-90.6470,12.0,27.4,11111222
Enven,ioos:station:wmo:42362:1,2020-10-14T17:53:00Z,27.7950,-90.6470,12.0,27.4,11111222
Enven,ioos:station:wmo:42362:1,2020-10-14T18:03:00Z,27.7950,-90.6470,12.0,27.5,11111222
Enven,ioos:station:wmo:42362:1,2020-10-14T18:13:00Z,27.7950,-90.6470,12.0,27.5,11111222
Enven,ioos:station:wmo:42362:1,2020-10-14T18:23:00Z,27.7950,-90.6470,12.0,27.5,11111222
Enven,ioos:station:wmo:42362:1,2020-10-14T18:33:00Z,27.7950,-90.6470,12.0,27.5,11111222
Enven,ioos:station:wmo:42362:1,2020-10-14T18:43:00Z,27.7950,-90.6470,12.0,26.9,11111222
Enven,ioos:station:wmo:42362:1,2020-10-14T18:53:00Z,27.7950,-90.6470,12.0,26.8,11111222
Enven,ioos:station:wmo:42362:1,2020-10-14T19:03:00Z,27.7950,-90.6470,12.0,26.8,11111222
Enven,ioos:station:wmo:42362:1,2020-10-14T19:13:00Z,27.7950,-90.6470,12.0,26.8,11111222
Enven,ioos:station:wmo:42362:1,2020-10-14T19:23:00Z,27.7950,-90.6470,12.0,26.8,11111222
Enven,ioos:station:wmo:42362:1,2020-10-14T19:33:00Z,27.7950,-90.6470,12.0,26.8,11111222
Enven,ioos:station:wmo:42362:1,2020-10-14T19:43:00Z,27.7950,-90.6470,12.0,26.7,11111222
Enven,ioos:station:wmo:42362:1,2020-10-14T19:53:00Z,27.7950,-90.6470,12.0,26.9,11111222
Enven,ioos:station:wmo:42362:1,2020-10-14T20:03:00Z,27.7950,-90.6470,12.0,27.0,11111222
Enven,ioos:station:wmo:42362:1,2020-10-14T20:13:00Z,27.7950,-90.6470,12.0,26.7,11111222
Enven,ioos:station:wmo:42362:1,2020-10-14T20:23:00Z,27.7950,-90.6470,12.0,26.7,11111222
Enven,ioos:station:wmo:42362:1,2020-10-14T20:33:00Z,27.7950,-90.6470,12.0,26.7,11111222
Enven,ioos:station:wmo:42362:1,2020-10-14T20:43:00Z,27.7950,-90.6470,12.0,26.7,11111222
Enven,ioos:station:wmo:42362:1,2020-10-14T20:53:00Z,27.7950,-90.6470,12.0,26.8,11111222
Enven,ioos:station:wmo:42362:1,2020-10-14T21:03:00Z,27.7950,-90.6470,12.0,26.8,11111222
Enven,ioos:station:wmo:42362:1,2020-10-14T21:13:00Z,27.7950,-90.6470,12.0,27.1,11111222
Enven,ioos:station:wmo:42362:1,2020-10-14T21:23:00Z,27.7950,-90.6470,12.0,27.4,11111222
Enven,ioos:station:wmo:42362:1,2020-10-14T21:33:00Z,27.7950,-90.6470,12.0,27.5,11111222
Enven,ioos:station:wmo:42362:1,2020-10-14T21:43:00Z,27.7950,-90.6470,12.0,27.4,11111222
Enven,ioos:station:wmo:42362:1,2020-10-14T21:53:00Z,27.7950,-90.6470,12.0,27.4,11111222
Enven,ioos:station:wmo:42362:1,2020-10-14T22:03:00Z,27.7950,-90.6470,12.0,27.5,11111222
Enven,ioos:station:wmo:42362:1,2020-10-14T22:13:00Z,27.7950,-90.6470,12.0,27.4,11111222
Enven,ioos:station:wmo:42362:1,2020-10-14T22:23:00Z,27.7950,-90.6470,12.0,27.4,11111222
Enven,ioos:station:wmo:42362:1,2020-10-14T22:33:00Z,27.7950,-90.6470,12.0,27.4,11111222
Enven,ioos:station:wmo:42362:1,2020-10-14T22:43:00Z,27.7950,-90.6470,12.0,27.4,11111222
Enven,ioos:station:wmo:42362:1,2020-10-14T22:53:00Z,27.7950,-90.6470,12.0,27.4,11111222
Enven,ioos:station:wmo:42362:1,2020-10-14T23:03:00Z,27.7950,-90.6470,12.0,27.4,11111222
Enven,ioos:station:wmo:42362:1,2020-10-14T23:13:00Z,27.7950,-90.6470,12.0,27.4,11111222
Enven,ioos:station:wmo:42362:1,2020-10-14T23:23:00Z,27.7950,-90.6470,12.0,27.5,11111222
Enven,ioos:station:wmo:42362:1,2020-10-14T23:33:00Z,27.7950,-90.6470,12.0,27.5,11111222
Enven,ioos:station:wmo:42362:1,2020-10-14T23:43:00Z,27.7950,-90.6470,12.0,27.5,11111222
Enven,ioos:station:wmo:42362:1,2020-10-14T23:53:00Z,27.7950,-90.6470,12.0,27.5,11111222
Enven,ioos:station:wmo:42362:1,2020-10-15T00:03:00Z,27.7950,-90.6470,12.0,27.5,11111222
Enven,ioos:station:wmo:42362:1,2020-10-15T00:13:00Z,27.7950,-90.6470,12.0,27.5,11111222
Enven,ioos:station:wmo:42362:1,2020-10-15T00:23:00Z,27.7950,-90.6470,12.0,27.5,11111222
Enven,ioos:station:wmo:42362:1,2020-10-15T00:33:00Z,27.7950,-90.6470,12.0,27.5,11111222
Enven,ioos:station:wmo:42362:1,2020-10-15T00:43:00Z,27.7950,-90.6470,12.0,27.5,11111222
Enven,ioos:station:wmo:42362:1,2020-10-15T00:53:00Z,27.7950,-90.6470,12.0,27.4,11111222
Enven,ioos:station:wmo:42362:1,2020-10-15T01:03:00Z,27.7950,-90.6470,12.0,27.4,11111222
Enven,ioos:station:wmo:42362:1,2020-10-15T01:13:00Z,27.7950,-90.6470,12.0,27.4,11111222
Enven,ioos:station:wmo:42362:1,2020-10-15T01:23:00Z,27.7950,-90.6470,12.0,27.4,11111222
Enven,ioos:station:wmo:42362:1,2020-10-15T01:33:00Z,27.7950,-90.6470,12.0,27.4,11111222
Enven,ioos:station:wmo:42362:1,2020-10-15T01:43:00Z,27.7950,-90.6470,12.0,27.4,11111222
Enven,ioos:station:wmo:42362:1,2020-10-15T01:53:00Z,27.7950,-90.6470,12.0,27.4,11111222
Enven,ioos:station:wmo:42362:1,2020-10-15T02:03:00Z,27.7950,-90.6470,12.0,27.4,11111222
Enven,ioos:station:wmo:42362:1,2020-10-15T02:13:00Z,27.7950,-90.6470,12.0,27.4,11111222
Enven,ioos:station:wmo:42362:1,2020-10-15T02:23:00Z,27.7950,-90.6470,12.0,27.4,11111222
Enven,ioos:station:wmo:42362:1,2020-10-15T02:33:00Z,27.7950,-90.6470,12.0,27.4,11111222
Enven,ioos:station:wmo:42362:1,2020-10-15T02:43:00Z,27.7950,-90.6470,12.0,27.4,11111222
Enven,ioos:station:wmo:42362:1,2020-10-15T02:53:00Z,27.7950,-90.6470,12.0,27.4,11111222
Enven,ioos:station:wmo:42362:1,2020-10-15T03:03:00Z,27.7950,-90.6470,12.0,27.4,11111222
Enven,ioos:station:wmo:42362:1,2020-10-15T03:13:00Z,27.7950,-90.6470,12.0,27.4,11111222
Enven,ioos:station:wmo:42362:1,2020-10-15T03:23:00Z,27.7950,-90.6470,12.0,27.4,11111222
Enven,ioos:station:wmo:42362:1,2020-10-15T03:33:00Z,27.7950,-90.6470,12.0,27.4,11111222
Enven,ioos:station:wmo:42362:1,2020-10-15T03:43:00Z,27.7950,-90.6470,12.0,27.4,11111222
Enven,ioos:station:wmo:42362:1,2020-10-15T03:53:00Z,27.7950,-90.6470,12.0,27.4,11111222
Enven,ioos:station:wmo:42362:1,2020-10-15T04:03:00Z,27.7950,-90.6470,12.0,27.4,11111222
Enven,ioos:station:wmo:42362:1,2020-10-15T04:13:00Z,27.7950,-90.6470,12.0,27.4,11111222
Enven,ioos:station:wmo:42362:1,2020-10-15T04:23:00Z,27.7950,-90.6470,12.0,27.4,11111222
Enven,ioos:station:wmo:42362:1,2020-10-15T04:33:00Z,27.7950,-90.6470,12.0,27.4,11111222
Enven,ioos:station:wmo:42362:1,2020-10-15T04:43:00Z,27.7950,-90.6470,12.0,27.4,11111222
Enven,ioos:station:wmo:42362:1,2020-10-15T04:53:00Z,27.7950,-90.6470,12.0,27.4,11111222
Enven,ioos:station:wmo:42362:1,2020-10-15T05:03:00Z,27.7950,-90.6470,12.0,27.4,11111222
Enven,ioos:station:wmo:42362:1,2020-10-15T05:13:00Z,27.7950,-90.6470,12.0,27.4,11111222
Enven,ioos:station:wmo:42362:1,2020-10-15T05:23:00Z,27.7950,-90.6470,12.0,27.4,11111222
Enven,ioos:station:wmo:42362:1,2020-10-15T05:33:00Z,27.7950,-90.6470,12.0,27.4,11111222
Enven,ioos:station:wmo:42362:1,2020-10-15T05:43:00Z,27.7950,-90.6470,12.0,27.4,11111222
Enven,ioos:station:wmo:42362:1,2020-10-15T05:53:00Z,27.7950,-90.6470,12.0,27.4,11111222
Enven,ioos:station:wmo:42362:1,2020-10-15T06:03:00Z,27.7950,-90.6470,12.0,27.3,11111222
Enven,ioos:station:wmo:42362:1,2020-10-15T06:13:00Z,27.7950,-90.6470,12.0,27.3,11111222
Enven,ioos:station:wmo:42362:1,2020-10-15T06:23:00Z,27.7950,-90.6470,12.0,27.3,11111222
Enven,ioos:station:wmo:42362:1,2020-10-15T06:33:00Z,27.7950,-90.6470,12.0,27.3,11111222
Enven,ioos:station:wmo:42362:1,2020-10-15T06:43:00Z,27.7950,-90.6470,12.0,27.3,11111222
Enven,ioos:station:wmo:42362:1,2020-10-15T06:53:00Z,27.7950,-90.6470,12.0,27.3,11111222
Enven,ioos:station:wmo:42362:1,2020-10-15T07:03:00Z,27.7950,-90.6470,12.0,27.3,11111222
Enven,ioos:station:wmo:42362:1,2020-10-15T07:13:00Z,27.7950,-90.6470,12.0,27.3,11111222
Enven,ioos:station:wmo:42362:1,2020-10-15T07:23:00Z,27.7950,-90.6470,12.0,27.4,11111222
Enven,ioos:station:wmo:42362:1,2020-10-15T07:33:00Z,27.7950,-90.6470,12.0,27.3,11111222
Enven,ioos:station:wmo:42362:1,2020-10-15T07:43:00Z,27.7950,-90.6470,12.0,27.3,11111222
Enven,ioos:station:wmo:42362:1,2020-10-15T07:53:00Z,27.7950,-90.6470,12.0,27.4,11111222
Enven,ioos:station:wmo:42362:1,2020-10-15T08:03:00Z,27.7950,-90.6470,12.0,27.4,11111222
Enven,ioos:station:wmo:42362:1,2020-10-15T08:13:00Z,27.7950,-90.6470,12.0,27.4,11111222
Enven,ioos:station:wmo:42362:1,2020-10-15T08:23:00Z,27.7950,-90.6470,12.0,27.4,11111222
Enven,ioos:station:wmo:42362:1,2020-10-15T08:33:00Z,27.7950,-90.6470,12.0,27.4,11111222
Enven,ioos:station:wmo:42362:1,2020-10-15T08:43:00Z,27.7950,-90.6470,12.0,27.4,11111222
Enven,ioos:station:wmo:42362:1,2020-10-15T08:53:00Z,27.7950,-90.6470,12.0,27.4,11111222
Enven,ioos:station:wmo:42362:1,2020-10-15T09:03:00Z,27.7950,-90.6470,12.0,27.4,11111222
Enven,ioos:station:wmo:42362:1,2020-10-15T09:13:00Z,27.7950,-90.6470,12.0,27.4,11111222
Enven,ioos:station:wmo:42362:1,2020-10-15T09:23:00Z,27.7950,-90.6470,12.0,27.3,11111222
Enven,ioos:station:wmo:42362:1,2020-10-15T09:33:00Z,27.7950,-90.6470,12.0,27.3,11111222
Enven,ioos:station:wmo:42362:1,2020-10-15T09:43:00Z,27.7950,-90.6470,12.0,27.3,11111222
Enven,ioos:station:wmo:42362:1,2020-10-15T09:53:00Z,27.7950,-90.6470,12.0,27.3,11111222
Enven,ioos:station:wmo:42362:1,2020-10-15T10:03:00Z,27.7950,-90.6470,12.0,27.3,11111222
Enven,ioos:station:wmo:42362:1,2020-10-15T10:13:00Z,27.7950,-90.6470,12.0,27.3,11111222
Enven,ioos:station:wmo:42362:1,2020-10-15T10:23:00Z,27.7950,-90.6470,12.0,27.3,11111222
Enven,ioos:station:wmo:42362:1,2020-10-15T10:33:00Z,27.7950,-90.6470,12.0,27.3,11111222
Enven,ioos:station:wmo:42362:1,2020-10-15T10:43:00Z,27.7950,-90.6470,12.0,27.3,11111222
Enven,ioos:station:wmo:42362:1,2020-10-15T10:53:00Z,27.7950,-90.6470,12.0,27.3,11111222
Enven,ioos:station:wmo:42362:1,2020-10-15T11:03:00Z,27.7950,-90.6470,12.0,27.3,11111222
Enven,ioos:station:wmo:42362:1,2020-10-15T11:13:00Z,27.7950,-90.6470,12.0,27.3,11111222
Enven,ioos:station:wmo:42362:1,2020-10-15T11:23:00Z,27.7950,-90.6470,12.0,27.3,11111222
Enven,ioos:station:wmo:42362:1,2020-10-15T11:33:00Z,27.7950,-90.6470,12.0,27.4,11111222
Enven,ioos:station:wmo:42362:1,2020-10-15T11:43:00Z,27.7950,-90.6470,12.0,27.2,11111222
Enven,ioos:station:wmo:42362:1,2020-10-15T11:53:00Z,27.7950,-90.6470,12.0,27.1,11111222
Enven,ioos:station:wmo:42362:1,2020-10-15T12:03:00Z,27.7950,-90.6470,12.0,27.3,11111222
Enven,ioos:station:wmo:42362:1,2020-10-15T12:13:00Z,27.7950,-90.6470,12.0,27.3,11111222
Enven,ioos:station:wmo:42362:1,2020-10-15T12:23:00Z,27.7950,-90.6470,12.0,27.4,11111222
Enven,ioos:station:wmo:42362:1,2020-10-15T12:33:00Z,27.7950,-90.6470,12.0,27.4,11111222
Enven,ioos:station:wmo:42362:1,2020-10-15T12:43:00Z,27.7950,-90.6470,12.0,27.4,11111222
Enven,ioos:station:wmo:42362:1,2020-10-15T12:53:00Z,27.7950,-90.6470,12.0,27.3,11111222
Enven,ioos:station:wmo:42362:1,2020-10-15T13:03:00Z,27.7950,-90.6470,12.0,27.4,11111222
Enven,ioos:station:wmo:42362:1,2020-10-15T13:13:00Z,27.7950,-90.6470,12.0,27.4,11111222
Enven,ioos:station:wmo:42362:1,2020-10-15T13:23:00Z,27.7950,-90.6470,12.0,27.4,11111222
Enven,ioos:station:wmo:42362:1,2020-10-15T13:33:00Z,27.7950,-90.6470,12.0,27.4,11111222
Enven,ioos:station:wmo:42362:1,2020-10-15T13:43:00Z,27.7950,-90.6470,12.0,27.4,11111222
Enven,ioos:station:wmo:42362:1,2020-10-15T13:53:00Z,27.7950,-90.6470,12.0,27.4,11111222
Enven,ioos:station:wmo:42362:1,2020-10-15T14:03:00Z,27.7950,-90.6470,12.0,27.4,11111222
Enven,ioos:station:wmo:42362:1,2020-10-15T14:13:00Z,27.7950,-90.6470,12.0,27.4,11111222
Enven,ioos:station:wmo:42362:1,2020-10-15T14:23:00Z,27.7950,-90.6470,12.0,27.4,11111222
Enven,ioos:station:wmo:42362:1,2020-10-15T14:33:00Z,27.7950,-90.6470,12.0,27.4,11111222
Enven,ioos:station:wmo:42362:1,2020-10-15T14:43:00Z,27.7950,-90.6470,12.0,27.4,11111222
Enven,ioos:station:wmo:42362:1,2020-10-15T14:53:00Z,27.7950,-90.6470,12.0,27.4,11111222
Enven,ioos:station:wmo:42362:1,2020-10-15T15:03:00Z,27.7950,-90.6470,12.0,27.4,11111222
Enven,ioos:station:wmo:42362:1,2020-10-15T15:13:00Z,27.7950,-90.6470,12.0,27.4,11111222
Enven,ioos:station:wmo:42362:1,2020-10-15T15:23:00Z,27.7950,-90.6470,12.0,27.4,11111222
Enven,ioos:station:wmo:42362:1,2020-10-15T15:33:00Z,27.7950,-90.6470,12.0,27.4,11111222
Enven,ioos:station:wmo:42362:1,2020-10-15T15:43:00Z,27.7950,-90.6470,12.0,27.4,11111222
Enven,ioos:station:wmo:42362:1,2020-10-15T15:53:00Z,27.7950,-90.6470,12.0,27.4,11111222
Enven,ioos:station:wmo:42362:1,2020-10-15T16:03:00Z,27.7950,-90.6470,12.0,27.4,11111222
Enven,ioos:station:wmo:42362:1,2020-10-15T16:13:00Z,27.7950,-90.6470,12.0,27.4,11111222
Enven,ioos:station:wmo:42362:1,2020-10-15T16:23:00Z,27.7950,-90.6470,12.0,27.4,11111222
Enven,ioos:station:wmo:42362:1,2020-10-15T16:33:00Z,27.7950,-90.6470,12.0,27.4,11111222
Enven,ioos:station:wmo:42362:1,2020-10-15T16:43:00Z,27.7950,-90.6470,12.0,27.4,11111222
Enven,ioos:station:wmo:42362:1,2020-10-15T16:53:00Z,27.7950,-90.6470,12.0,27.5,11111222
Enven,ioos:station:wmo:42362:1,2020-10-15T17:03:00Z,27.7950,-90.6470,12.0,27.5,11111222
Enven,ioos:station:wmo:42362:1,2020-10-15T17:13:00Z,27.7950,-90.6470,12.0,27.5,11111222
Enven,ioos:station:wmo:42362:1,2020-10-15T17:23:00Z,27.7950,-90.6470,12.0,27.5,11111222
Enven,ioos:station:wmo:42362:1,2020-10-15T17:33:00Z,27.7950,-90.6470,12.0,27.5,11111222
Enven,ioos:station:wmo:42362:1,2020-10-15T17:43:00Z,27.7950,-90.6470,12.0,27.5,11111222
Enven,ioos:station:wmo:42362:1,2020-10-15T17:53:00Z,27.7950,-90.6470,12.0,27.5,11111222
Enven,ioos:station:wmo:42362:1,2020-10-15T18:03:00Z,27.7950,-90.6470,12.0,27.5,11111222
Enven,ioos:station:wmo:42362:1,2020-10-15T18:13:00Z,27.7950,-90.6470,12.0,27.5,11111222
Enven,ioos:station:wmo:42362:1,2020-10-15T18:23:00Z,27.7950,-90.6470,12.0,27.5,11111222
Enven,ioos:station:wmo:42362:1,2020-10-15T18:33:00Z,27.7950,-90.6470,12.0,27.5,11111222
Enven,ioos:station:wmo:42362:1,2020-10-15T18:43:00Z,27.7950,-90.6470,12.0,27.5,11111222
Enven,ioos:station:wmo:42362:1,2020-10-15T18:53:00Z,27.7950,-90.6470,12.0,27.6,11111222
Enven,ioos:station:wmo:42362:1,2020-10-15T19:03:00Z,27.7950,-90.6470,12.0,27.6,11111222
Enven,ioos:station:wmo:42362:1,2020-10-15T19:13:00Z,27.7950,-90.6470,12.0,27.5,11111222
Enven,ioos:station:wmo:42362:1,2020-10-15T19:23:00Z,27.7950,-90.6470,12.0,27.6,11111222
Enven,ioos:station:wmo:42362:1,2020-10-15T19:33:00Z,27.7950,-90.6470,12.0,27.5,11111222
Enven,ioos:station:wmo:42362:1,2020-10-15T19:43:00Z,27.7950,-90.6470,12.0,27.5,11111222
Enven,ioos:station:wmo:42362:1,2020-10-15T19:53:00Z,27.7950,-90.6470,12.0,27.5,11111222
Enven,ioos:station:wmo:42362:1,2020-10-15T20:03:00Z,27.7950,-90.6470,12.0,27.5,11111222
Enven,ioos:station:wmo:42362:1,2020-10-15T20:13:00Z,27.7950,-90.6470,12.0,27.5,11111222
Enven,ioos:station:wmo:42362:1,2020-10-15T20:23:00Z,27.7950,-90.6470,12.0,27.5,11111222
Enven,ioos:station:wmo:42362:1,2020-10-15T20:33:00Z,27.7950,-90.6470,12.0,27.5,11111222
Enven,ioos:station:wmo:42362:1,2020-10-15T20:43:00Z,27.7950,-90.6470,12.0,27.5,11111222
Enven,ioos:station:wmo:42362:1,2020-10-15T20:53:00Z,27.7950,-90.6470,12.0,27.5,11111222
Enven,ioos:station:wmo:42362:1,2020-10-15T21:03:00Z,27.7950,-90.6470,12.0,27.5,11111222
Enven,ioos:station:wmo:42362:1,2020-10-15T21:13:00Z,27.7950,-90.6470,12.0,27.5,11111222
Enven,ioos:station:wmo:42362:1,2020-10-15T21:23:00Z,27.7950,-90.6470,12.0,27.5,11111222
Enven,ioos:station:wmo:42362:1,2020-10-15T21:33:00Z,27.7950,-90.6470,12.0,27.4,11111222
Enven,ioos:station:wmo:42362:1,2020-10-15T21:43:00Z,27.7950,-90.6470,12.0,27.5,11111222
Enven,ioos:station:wmo:42362:1,2020-10-15T21:53:00Z,27.7950,-90.6470,12.0,27.4,11111222
Enven,ioos:station:wmo:42362:1,2020-10-15T22:03:00Z,27.7950,-90.6470,12.0,27.4,11111222
Enven,ioos:station:wmo:42362:1,2020-10-15T22:13:00Z,27.7950,-90.6470,12.0,27.4,11111222
Enven,ioos:station:wmo:42362:1,2020-10-15T22:23:00Z,27.7950,-90.6470,12.0,27.4,11111222
Enven,ioos:station:wmo:42362:1,2020-10-15T22:33:00Z,27.7950,-90.6470,12.0,27.4,11111222
Enven,ioos:station:wmo:42362:1,2020-10-15T22:43:00Z,27.7950,-90.6470,12.0,27.4,11111222
Enven,ioos:station:wmo:42362:1,2020-10-15T22:53:00Z,27.7950,-90.6470,12.0,27.4,11111222
Enven,ioos:station:wmo:42362:1,2020-10-15T23:03:00Z,27.7950,-90.6470,12.0,27.3,11111222
Enven,ioos:station:wmo:42362:1,2020-10-15T23:13:00Z,27.7950,-90.6470,12.0,27.3,11111222
Enven,ioos:station:wmo:42362:1,2020-10-15T23:23:00Z,27.7950,-90.6470,12.0,27.3,11111222
Enven,ioos:station:wmo:42362:1,2020-10-15T23:33:00Z,27.7950,-90.6470,12.0,27.2,11111222
Enven,ioos:station:wmo:42362:1,2020-10-15T23:43:00Z,27.7950,-90.6470,12.0,27.2,11111222
Enven,ioos:station:wmo:42362:1,2020-10-15T23:53:00Z,27.7950,-90.6470,12.0,27.2,11111222
Enven,ioos:station:wmo:42362:1,2020-10-16T00:03:00Z,27.7950,-90.6470,12.0,27.2,11111222
Enven,ioos:station:wmo:42362:1,2020-10-16T00:13:00Z,27.7950,-90.6470,12.0,27.2,11111222
Enven,ioos:station:wmo:42362:1,2020-10-16T00:23:00Z,27.7950,-90.6470,12.0,27.3,11111222
Enven,ioos:station:wmo:42362:1,2020-10-16T00:33:00Z,27.7950,-90.6470,12.0,27.2,11111222
Enven,ioos:station:wmo:42362:1,2020-10-16T00:43:00Z,27.7950,-90.6470,12.0,27.2,11111222
Enven,ioos:station:wmo:42362:1,2020-10-16T00:53:00Z,27.7950,-90.6470,12.0,27.2,11111222
Enven,ioos:station:wmo:42362:1,2020-10-16T01:03:00Z,27.7950,-90.6470,12.0,27.2,11111222
Enven,ioos:station:wmo:42362:1,2020-10-16T01:13:00Z,27.7950,-90.6470,12.0,27.1,11111222
Enven,ioos:station:wmo:42362:1,2020-10-16T01:23:00Z,27.7950,-90.6470,12.0,27.1,11111222
Enven,ioos:station:wmo:42362:1,2020-10-16T01:33:00Z,27.7950,-90.6470,12.0,27.1,11111222
Enven,ioos:station:wmo:42362:1,2020-10-16T01:43:00Z,27.7950,-90.6470,12.0,27.1,11111222
Enven,ioos:station:wmo:42362:1,2020-10-16T01:53:00Z,27.7950,-90.6470,12.0,27.1,11111222
Enven,ioos:station:wmo:42362:1,2020-10-16T02:03:00Z,27.7950,-90.6470,12.0,27.1,11111222
Enven,ioos:station:wmo:42362:1,2020-10-16T02:13:00Z,27.7950,-90.6470,12.0,27.1,11111222
Enven,ioos:station:wmo:42362:1,2020-10-16T02:23:00Z,27.7950,-90.6470,12.0,27.1,11111222
Enven,ioos:station:wmo:42362:1,2020-10-16T02:33:00Z,27.7950,-90.6470,12.0,27.1,11111222
Enven,ioos:station:wmo:42362:1,2020-10-16T02:43:00Z,27.7950,-90.6470,12.0,27.1,11111222
Enven,ioos:station:wmo:42362:1,2020-10-16T02:53:00Z,27.7950,-90.6470,12.0,27.1,11111222
Enven,ioos:station:wmo:42362:1,2020-10-16T03:03:00Z,27.7950,-90.6470,12.0,27.2,11111222
Enven,ioos:station:wmo:42362:1,2020-10-16T03:13:00Z,27.7950,-90.6470,12.0,27.2,11111222
Enven,ioos:station:wmo:42362:1,2020-10-16T03:23:00Z,27.7950,-90.6470,12.0,27.2,11111222
Enven,ioos:station:wmo:42362:1,2020-10-16T03:33:00Z,27.7950,-90.6470,12.0,27.2,11111222
Enven,ioos:station:wmo:42362:1,2020-10-16T03:43:00Z,27.7950,-90.6470,12.0,27.3,11111222
Enven,ioos:station:wmo:42362:1,2020-10-16T03:53:00Z,27.7950,-90.6470,12.0,27.3,11111222
Enven,ioos:station:wmo:42362:1,2020-10-16T04:03:00Z,27.7950,-90.6470,12.0,27.3,11111222
Enven,ioos:station:wmo:42362:1,2020-10-16T04:13:00Z,27.7950,-90.6470,12.0,27.3,11111222
Enven,ioos:station:wmo:42362:1,2020-10-16T04:23:00Z,27.7950,-90.6470,12.0,27.3,11111222
Enven,ioos:station:wmo:42362:1,2020-10-16T04:33:00Z,27.7950,-90.6470,12.0,27.3,11111222
Enven,ioos:station:wmo:42362:1,2020-10-16T04:43:00Z,27.7950,-90.6470,12.0,27.3,11111222
Enven,ioos:station:wmo:42362:1,2020-10-16T04:53:00Z,27.7950,-90.6470,12.0,27.3,11111222
Enven,ioos:station:wmo:42362:1,2020-10-16T05:03:00Z,27.7950,-90.6470,12.0,27.3,11111222
Enven,ioos:station:wmo:42362:1,2020-10-16T05:13:00Z,27.7950,-90.6470,12.0,27.3,11111222
Enven,ioos:station:wmo:42362:1,2020-10-16T05:23:00Z,27.7950,-90.6470,12.0,27.3,11111222
Enven,ioos:station:wmo:42362:1,2020-10-16T05:33:00Z,27.7950,-90.6470,12.0,27.3,11111222
Enven,ioos:station:wmo:42362:1,2020-10-16T05:43:00Z,27.7950,-90.6470,12.0,27.3,11111222
Enven,ioos:station:wmo:42362:1,2020-10-16T05:53:00Z,27.7950,-90.6470,12.0,27.3,11111222
Enven,ioos:station:wmo:42362:1,2020-10-16T06:03:00Z,27.7950,-90.6470,12.0,27.2,11111222
Enven,ioos:station:wmo:42362:1,2020-10-16T06:13:00Z,27.7950,-90.6470,12.0,27.3,11111222
Enven,ioos:station:wmo:42362:1,2020-10-16T06:23:00Z,27.7950,-90.6470,12.0,27.2,11111222
Enven,ioos:station:wmo:42362:1,2020-10-16T06:33:00Z,27.7950,-90.6470,12.0,27.2,11111222
Enven,ioos:station:wmo:42362:1,2020-10-16T06:43:00Z,27.7950,-90.6470,12.0,27.2,11111222
Enven,ioos:station:wmo:42362:1,2020-10-16T06:53:00Z,27.7950,-90.6470,12.0,27.2,11111222
Enven,ioos:station:wmo:42362:1,2020-10-16T07:03:00Z,27.7950,-90.6470,12.0,27.2,11111222
Enven,ioos:station:wmo:42362:1,2020-10-16T07:13:00Z,27.7950,-90.6470,12.0,27.2,11111222
Enven,ioos:station:wmo:42362:1,2020-10-16T07:23:00Z,27.7950,-90.6470,12.0,27.3,11111222
Enven,ioos:station:wmo:42362:1,2020-10-16T07:33:00Z,27.7950,-90.6470,12.0,27.3,11111222
Enven,ioos:station:wmo:42362:1,2020-10-16T07:43:00Z,27.7950,-90.6470,12.0,27.3,11111222
Enven,ioos:station:wmo:42362:1,2020-10-16T07:53:00Z,27.7950,-90.6470,12.0,27.3,11111222
Enven,ioos:station:wmo:42362:1,2020-10-16T08:03:00Z,27.7950,-90.6470,12.0,27.4,11111222
Enven,ioos:station:wmo:42362:1,2020-10-16T08:13:00Z,27.7950,-90.6470,12.0,27.4,11111222
Enven,ioos:station:wmo:42362:1,2020-10-16T08:23:00Z,27.7950,-90.6470,12.0,27.4,11111222
Enven,ioos:station:wmo:42362:1,2020-10-16T08:33:00Z,27.7950,-90.6470,12.0,27.3,11111222
Enven,ioos:station:wmo:42362:1,2020-10-16T08:43:00Z,27.7950,-90.6470,12.0,27.3,11111222